Tupelo, MS

8:40 AM CDT on May 29, 2017 (GMT -0500)
Tupelo Regional

Weather History for KTUP - November, 2011

Change the Weather History Date:

Friday, November 4, 2011

  Actual Average Record
Temperature  
Mean Temperature 50 °F 57 °F  
Max Temperature 56 °F 69 °F 81 °F (1987)
Min Temperature 44 °F 45 °F 21 °F (1991)
Degree Days  
Heating Degree Days 15 9  
Month to date heating degree days 50 34  
Since 1 July heating degree days 239 182  
Cooling Degree Days 0 1  
Month to date cooling degree days 0 4  
Year to date cooling degree days 2259 2037  
Moisture  
Dew Point 45 °F    
Average Humidity 82    
Maximum Humidity 93    
Minimum Humidity 71    
Precipitation  
Precipitation 0.00 in 0.13 in 1.68 in (1936)
Month to date precipitation 0.51 0.52  
Year to date precipitation 41.26 44.55  
Snow  
Snow 0.00 in 0.00 in 0.00 in (2002)
Month to date snowfall 0.0 0.0  
Since 1 July snowfall 0.0 0.0  
Since 1 September snowfall 0.0 0.0  
Snow Depth -    
Sea Level Pressure  
Sea Level Pressure 30.14 in    
Wind  
Wind Speed 7 mph (North)    
Max Wind Speed 16 mph    
Max Gust Speed 21 mph    
Visibility 8 miles    
Events Fog    
T = Trace of Precipitation, MM = Missing Value Source: NWS Daily Summary

Daily Weather History Graph

Daily Weather History Graph

Search for Another Location

Airport or City:

Trip Planner

Search our weather history database for the weather conditions in past years. The results will help you decide how hot, cold, wet, or windy it might be!

Date:

Astronomy

Nov. 04, 2011 Rise Set
Actual Time 7:17 AM CDT 5:59 PM CDT
Civil Twilight 6:51 AM CDT 6:25 PM CDT
Nautical Twilight 6:21 AM CDT 6:55 PM CDT
Astronomical Twilight 5:52 AM CDT 7:24 PM CDT
Moon 2:38 PM CDT (11/4) 1:43 AM CDT (11/4)
Length of Visible Light 11h 33m
Length of Day
10h 41m
Waxing Gibbous, 69% of the Moon is Illuminated
Nov 4
Waxing Gibbous
Nov 10
Full
Nov 18
Last Quarter
Nov 25
New
Dec 2
First Quarter

Hourly Weather History & Observations

Time (CDT) Temp. Windchill Dew Point Humidity Pressure Visibility Wind Dir Wind Speed Gust Speed Precip Events Conditions
12:53 AM 48.0 °F - 39.0 °F 71% 30.05 in 10.0 mi North 9.2 mph 18.4 mph N/A   Overcast
1:07 AM 48.2 °F - 39.2 °F 71% 30.05 in 10.0 mi NNW 9.2 mph - N/A   Overcast
1:53 AM 46.9 °F - 39.9 °F 77% 30.04 in 10.0 mi NNW 5.8 mph 18.4 mph N/A   Overcast
2:53 AM 46.9 °F - 41.0 °F 80% 30.04 in 10.0 mi North 12.7 mph - N/A   Overcast
3:05 AM 46.4 °F 41.5 °F 41.0 °F 81% 30.05 in 10.0 mi North 10.4 mph - N/A   Overcast
3:29 AM 48.2 °F - 42.8 °F 82% 30.05 in 10.0 mi North 8.1 mph - N/A   Overcast
3:50 AM 48.2 °F - 42.8 °F 82% 30.05 in 10.0 mi North 9.2 mph - N/A   Overcast
3:53 AM 48.0 °F - 42.1 °F 80% 30.05 in 10.0 mi North 9.2 mph - N/A   Overcast
4:53 AM 48.0 °F - 42.1 °F 80% 30.06 in 10.0 mi North 8.1 mph - N/A   Overcast
5:53 AM 46.9 °F - 43.0 °F 86% 30.08 in 10.0 mi North 4.6 mph - N/A   Overcast
6:53 AM 48.0 °F - 44.1 °F 86% 30.09 in 10.0 mi North 8.1 mph - N/A   Overcast
7:53 AM 50.0 °F - 44.1 °F 80% 30.12 in 10.0 mi North 4.6 mph - N/A   Overcast
8:11 AM 50.0 °F - 44.6 °F 82% 30.13 in 10.0 mi North 5.8 mph - N/A   Overcast
8:32 AM 50.0 °F - 44.6 °F 82% 30.14 in 10.0 mi North 6.9 mph - N/A   Overcast
8:53 AM 51.1 °F - 45.0 °F 80% 30.15 in 10.0 mi North 9.2 mph - N/A   Overcast
9:53 AM 53.1 °F - 46.0 °F 77% 30.16 in 10.0 mi NNE 16.1 mph - N/A   Mostly Cloudy
10:53 AM 54.0 °F - 46.0 °F 75% 30.16 in 10.0 mi NE 11.5 mph - N/A   Overcast
11:53 AM 55.0 °F - 46.0 °F 72% 30.17 in 10.0 mi NE 10.4 mph - N/A   Overcast
12:53 PM 55.0 °F - 46.0 °F 72% 30.17 in 10.0 mi NE 11.5 mph - N/A   Overcast
1:53 PM 55.0 °F - 46.0 °F 72% 30.16 in 10.0 mi North 10.4 mph - N/A   Overcast
2:46 PM 55.4 °F - 46.4 °F 72% 30.15 in 10.0 mi North 6.9 mph - N/A   Overcast
2:53 PM 55.9 °F - 46.9 °F 72% 30.15 in 10.0 mi North 8.1 mph - N/A   Overcast
3:10 PM 55.4 °F - 46.4 °F 72% 30.15 in 10.0 mi North 9.2 mph - N/A   Overcast
3:53 PM 55.9 °F - 46.9 °F 72% 30.15 in 10.0 mi North 8.1 mph - N/A   Overcast
4:06 PM 55.4 °F - 46.4 °F 72% 30.15 in 10.0 mi North 8.1 mph - N/A   Overcast
4:53 PM 55.9 °F - 48.0 °F 75% 30.15 in 10.0 mi NNE 8.1 mph - N/A   Overcast
5:53 PM 55.0 °F - 48.0 °F 77% 30.15 in 10.0 mi NNE 4.6 mph - N/A   Overcast
6:53 PM 51.1 °F - 46.9 °F 86% 30.17 in 10.0 mi Calm Calm - N/A   Scattered Clouds
7:53 PM 52.0 °F - 48.0 °F 86% 30.18 in 10.0 mi Calm Calm - N/A   Overcast
8:06 PM 51.8 °F - 48.2 °F 88% 30.17 in 10.0 mi North 3.5 mph - N/A   Overcast
8:41 PM 48.2 °F - 46.4 °F 93% 30.17 in 10.0 mi NNE 4.6 mph - N/A   Scattered Clouds
8:53 PM 48.0 °F - 46.0 °F 93% 30.17 in 10.0 mi NNE 5.8 mph - N/A   Clear
9:53 PM 46.0 °F 44.8 °F 45.0 °F 96% 30.18 in 6.0 mi NNE 3.5 mph - N/A   Clear
10:24 PM 44.6 °F 43.1 °F 44.6 °F 100% 30.19 in 1.5 mi North 3.5 mph - N/A   Clear
10:35 PM 46.4 °F - 44.6 °F 93% 30.19 in 3.0 mi Calm Calm - N/A   Clear
10:53 PM 46.0 °F 44.8 °F 45.0 °F 96% 30.18 in 2.5 mi NNE 3.5 mph - N/A   Clear
11:04 PM 44.6 °F 43.1 °F 44.6 °F 100% 30.18 in 1.2 mi NNE 3.5 mph - N/A   Partly Cloudy
11:11 PM 44.6 °F 43.1 °F 44.6 °F 100% 30.18 in 0.5 mi North 3.5 mph - N/A Fog Fog
11:16 PM 44.6 °F 43.1 °F 44.6 °F 100% 30.18 in 1.2 mi North 3.5 mph - N/A   Partly Cloudy
11:21 PM 44.6 °F 43.1 °F 44.6 °F 100% 30.18 in 3.0 mi North 3.5 mph - N/A   Partly Cloudy
11:45 PM 44.6 °F - 44.6 °F 100% 30.19 in 2.5 mi Calm Calm - N/A   Clear
11:53 PM 46.0 °F - 44.1 °F 93% 30.19 in 3.0 mi Calm Calm - N/A   Clear